Wind_Speed
3 3 2 2 2 3 3 4 4 4 6 6 7 5 7 3 3 10 16 13 14 13 15 15 13 14 11 11 11 4 1 5 7 8 9 8 10 14 9 8 9 10 11
4 2 3 2 1 2 2 2 1 3 4 5 7 6 3 2 2 6 9 8 11 16 16 10 8 10 10 9 9 7 9 10 8 7 7 6 8 11 9 6 8 7 9
4 4 4 1 1 1 2 3 1 1 2 4 7 6 4 2 3 2 3 12 9 14 13 11 11 9 11 11 11 10 7 11 9 9 11 4 5 4 4 7 6 7 9
8 5 7 3 5 2 2 5 4 3 1 4 8 8 6 3 3 5 4 7 7 11 12 13 11 12 8 13 6 11 11 12 13 7 6 4 7 8 4 5 7 5 5
18 4 2 7 6 3 3 3 2 4 1 1 5 8 7 7 5 6 6 7 8 11 13 13 10 8 6 9 8 10 10 8 7 2 5 3 6 10 8 8 10 8 3
14 15 15 14 8 5 3 1 1 2 1 2 4 6 8 10 10 9 8 10 9 11 14 15 13 13 11 9 9 11 10 12 12 8 4 5 8 7 9 4 4 2 7
11 7 6 6 6 4 5 2 1 2 2 3 4 5 5 7 8 8 9 13 11 10 12 17 16 15 11 10 9 11 12 12 13 10 8 8 10 8 4 5 8 6 11
5 7 9 7 4 6 5 3 2 2 4 4 4 5 5 6 8 8 8 10 12 15 15 17 19 18 15 13 13 12 12 14 12 10 9 10 8 6 8 5 8 6 12
15 15 9 7 8 7 5 7 7 4 4 3 4 4 7 8 8 9 11 13 14 12 13 17 19 20 19 16 15 14 14 14 15 12 11 12 10 8 8 9 9 7 5
11 11 12 13 10 7 4 3 4 4 5 5 6 9 9 9 11 12 13 14 16 15 20 22 18 20 20 20 16 17 15 15 16 14 10 14 11 9 9 11 12 8 7
16 16 15 14 12 12 10 7 6 6 6 7 7 8 10 11 13 13 15 15 18 15 19 18 19 22 20 21 19 18 15 17 15 14 12 13 15 13 10 9 9 10 6
25 23 23 21 19 18 17 16 15 14 12 10 11 10 12 11 11 15 17 18 19 17 17 13 18 18 18 20 20 20 19 20 17 17 15 14 14 13 13 5 11 12 10
26 27 26 26 24 24 23 23 23 22 20 17 15 15 14 14 15 13 15 19 21 17 17 19 19 17 17 20 20 26 26 22 19 19 18 16 15 14 15 14 9 17 15
26 27 28 28 29 29 28 27 29 28 27 26 23 21 21 19 18 17 16 16 20 20 19 20 21 21 22 22 22 23 25 23 21 20 17 17 17 16 16 17 15 14 16
31 30 30 32 32 33 34 33 32 34 32 33 31 30 30 27 23 22 18 18 17 21 21 21 21 21 20 23 23 23 26 27 22 21 20 18 18 18 18 18 16 12 13
33 34 36 37 35 37 38 39 39 39 38 37 36 35 33 30 28 27 25 21 20 20 23 22 22 22 23 25 25 22 26 26 25 23 22 21 19 19 21 20 19 18 15
33 38 42 43 43 43 43 44 44 45 46 45 42 40 40 36 34 32 31 29 25 26 23 25 24 23 24 25 25 25 26 28 29 27 27 24 23 23 23 22 22 21 21
39 42 44 46 47 48 48 49 49 50 51 52 51 49 46 42 39 37 34 32 32 28 28 26 27 27 26 27 26 28 27 27 29 29 29 28 28 28 26 26 24 23 23
41 44 48 49 49 47 46 46 47 49 51 54 58 60 56 52 47 42 40 37 36 34 30 30 29 27 29 31 29 28 27 27 30 33 32 31 29 31 29 28 29 26 25
45 46 47 45 42 37 33 33 36 39 41 46 54 57 59 61 59 50 48 44 39 38 37 34 32 30 30 32 32 31 28 26 27 31 32 32 32 32 32 31 32 30 31
47 46 44 38 33 36 40 39 40 44 44 42 41 42 50 58 58 58 61 57 46 43 41 37 35 34 32 33 35 33 30 29 30 32 31 31 31 34 36 34 32 31 34
44 43 41 39 36 38 39 38 37 39 41 44 46 45 42 41 48 58 60 68 58 56 45 39 37 37 37 36 36 37 33 33 33 31 32 33 31 34 33 33 34 35 34
43 42 43 44 43 44 45 43 38 40 37 41 43 44 46 47 48 48 55 67 68 45 58 43 42 40 42 40 39 38 36 34 31 30 29 30 31 33 32 33 36 39 36
42 39 39 41 47 47 46 43 41 40 42 43 46 47 44 44 47 49 49 51 59 49 59 45 46 46 47 46 42 38 37 35 34 31 31 29 30 32 31 30 28 27 37
33 35 40 43 43 45 43 39 39 42 42 43 44 48 49 46 46 44 47 48 47 55 63 63 41 48 48 50 50 40 40 41 38 36 31 31 31 29 29 26 22 21 23
35 40 40 44 42 41 37 38 35 36 37 36 39 44 46 44 45 46 45 45 45 47 45 51 54 54 52 53 50 39 40 40 40 35 35 31 30 27 27 24 20 20 20
Wind_Direction
169 182 122 230 211 266 250 245 230 245 253 249 242 260 298 4 258 217 212 192 216 214 208 199 208 204 164 186 217 201 178 220 174 141 134 150 134 115 105 98 106 112 113
116 192 140 169 296 305 325 255 14 268 252 234 257 250 270 246 60 195 211 201 197 204 210 196 209 228 170 190 201 208 243 222 170 150 178 172 132 109 99 115 117 113 118
107 228 162 261 359 205 51 80 65 50 278 217 239 239 256 303 257 167 113 145 195 204 192 204 153 217 198 181 226 253 263 256 232 184 197 133 124 137 152 152 123 130 130
39 163 155 188 201 160 62 62 80 89 232 220 229 221 233 242 254 247 226 180 204 219 211 201 207 214 208 232 184 267 269 256 245 220 205 251 117 191 183 168 151 146 160
33 32 5 142 43 109 108 74 74 116 122 217 230 217 234 242 233 213 210 209 205 218 229 233 233 247 227 227 227 233 260 256 185 175 321 219 205 182 194 247 189 167 239
30 37 22 15 16 45 66 74 330 38 143 214 234 224 227 238 242 245 226 218 213 214 220 235 240 241 244 244 234 237 235 235 210 210 231 249 247 259 232 264 228 311 209
45 54 67 68 45 354 51 20 292 295 281 239 235 227 218 250 251 251 250 241 244 242 231 230 233 239 243 249 262 252 231 234 240 251 247 237 231 256 13 213 233 249 220
360 17 43 45 40 41 34 18 317 271 267 247 240 251 242 230 248 253 248 248 255 250 247 237 231 228 227 235 255 257 246 235 237 241 232 225 234 263 286 247 255 290 232
343 356 358 2 15 23 19 17 17 344 282 278 264 255 263 265 259 254 243 246 259 256 244 233 239 233 229 233 244 248 248 245 239 239 231 224 232 262 292 291 287 303 220
316 320 328 336 338 340 359 343 334 332 349 297 281 282 264 260 259 263 264 261 252 244 251 233 221 231 233 240 241 252 253 237 232 232 239 234 225 232 262 277 278 257 247
306 306 310 305 302 304 301 298 296 303 302 292 285 296 284 274 267 259 263 267 270 254 258 243 257 239 233 239 242 248 249 230 228 232 242 233 231 230 243 258 235 225 240
300 301 299 297 293 289 287 289 284 287 279 279 288 285 278 281 288 283 271 266 266 265 254 237 249 241 236 240 245 247 245 234 238 234 241 234 227 228 235 260 237 230 225
287 289 288 288 286 284 282 279 282 275 280 275 274 279 283 282 279 279 277 275 275 265 254 254 248 243 244 242 257 245 241 239 250 221 238 241 239 237 240 244 250 240 221
284 280 278 277 279 279 276 271 272 273 273 272 271 277 279 281 281 273 267 272 270 268 257 251 254 250 247 248 255 248 231 230 238 239 235 237 243 248 251 249 250 230 216
285 283 282 281 279 276 275 273 267 269 268 268 268 269 272 274 274 275 270 259 266 263 259 256 254 252 243 242 244 252 238 227 238 243 238 238 239 245 252 256 255 241 227
287 290 290 287 282 280 278 277 274 271 267 261 261 263 264 268 268 266 270 271 256 256 255 250 253 246 238 241 242 242 244 237 235 234 241 243 245 247 248 252 254 255 251
292 291 288 287 288 286 281 275 272 270 268 264 260 256 258 256 260 263 262 263 261 254 253 251 248 251 246 241 242 244 246 238 236 234 239 246 248 250 251 249 253 256 255
290 288 289 288 286 283 279 276 272 267 263 262 259 258 255 256 252 254 257 259 260 255 248 248 249 248 249 247 243 243 244 240 239 244 243 242 247 248 251 251 250 249 254
291 291 291 291 288 285 282 277 275 271 266 260 256 254 256 254 252 250 249 250 253 255 251 244 245 247 246 248 245 243 243 243 245 247 247 250 251 252 251 254 253 252 254
294 295 294 292 291 287 281 280 282 281 277 272 261 257 256 253 252 251 247 244 245 248 249 246 243 243 244 246 246 246 244 244 246 249 250 250 250 252 253 248 250 253 255
297 296 295 295 289 290 287 283 281 282 278 268 266 263 257 256 255 251 250 241 237 241 243 244 241 240 239 240 243 242 242 241 243 245 247 250 252 253 252 253 252 251 253
295 292 289 286 290 292 291 285 276 277 273 266 266 266 261 259 257 253 250 247 243 235 235 240 240 239 239 237 239 241 239 239 242 246 249 248 251 252 250 252 253 252 250
295 290 286 288 290 291 289 287 278 269 271 269 270 268 264 264 260 253 250 252 260 260 220 227 236 238 237 236 238 241 241 239 240 244 247 252 248 255 257 259 260 259 252
298 294 290 287 290 291 288 284 279 271 268 264 261 262 265 266 265 264 258 260 254 244 249 202 226 233 238 233 232 235 237 235 236 239 246 250 250 256 261 270 261 258 244
294 292 298 296 298 289 287 285 278 271 267 265 264 263 263 263 262 262 262 263 262 245 252 237 223 225 229 235 233 226 234 239 240 236 242 247 249 253 258 266 266 262 245
291 298 300 298 304 291 289 283 277 271 269 266 269 264 262 261 261 261 260 260 262 263 252 247 259 245 219 228 229 225 229 235 238 238 242 247 250 253 255 256 254 249 242
Height
5880 5880 5881 5884 5886 5887 5887 5887 5888 5889 5889 5890 5890 5892 5892 5891 5891 5892 5894 5898 5901 5904 5905 5907 5907 5908 5916 5919 5919 5919 5916 5922 5926 5928 5922 5917 5919 5917 5923 5926 5926 5926 5927
5880 5880 5880 5883 5884 5886 5886 5886 5886 5888 5889 5890 5890 5891 5893 5892 5892 5893 5896 5899 5900 5902 5903 5911 5912 5914 5913 5915 5918 5919 5915 5916 5922 5921 5917 5921 5923 5920 5921 5925 5926 5927 5928
5880 5882 5881 5883 5884 5885 5885 5885 5886 5887 5887 5888 5889 5891 5892 5893 5894 5895 5896 5897 5901 5899 5907 5909 5911 5913 5917 5915 5916 5917 5918 5914 5920 5914 5917 5907 5921 5923 5923 5925 5925 5927 5927
5882 5883 5883 5883 5885 5885 5885 5885 5887 5887 5888 5888 5890 5891 5892 5893 5895 5896 5898 5900 5900 5899 5904 5910 5911 5915 5911 5899 5908 5913 5918 5916 5914 5916 5921 5921 5919 5926 5926 5924 5925 5928 5929
5886 5883 5882 5865 5881 5885 5885 5887 5888 5887 5888 5888 5890 5890 5891 5893 5895 5896 5898 5900 5901 5902 5901 5904 5907 5909 5912 5916 5919 5919 5917 5914 5918 5918 5914 5920 5916 5918 5922 5920 5923 5920 5932
5886 5887 5884 5884 5886 5887 5887 5887 5888 5887 5888 5888 5889 5890 5891 5892 5893 5895 5898 5899 5901 5902 5904 5905 5907 5910 5914 5917 5918 5920 5920 5916 5920 5922 5920 5919 5911 5920 5920 5924 5921 5915 5931
5891 5891 5891 5891 5891 5890 5887 5888 5888 5888 5889 5889 5889 5889 5890 5891 5891 5893 5895 5898 5899 5900 5901 5903 5906 5909 5911 5913 5914 5916 5917 5917 5917 5917 5918 5916 5920 5918 5916 5924 5925 5927 5927
5895 5893 5892 5891 5891 5891 5890 5889 5889 5889 5889 5889 5889 5888 5889 5890 5891 5892 5894 5894 5896 5897 5897 5898 5900 5903 5906 5909 5911 5913 5915 5915 5917 5916 5918 5917 5918 5922 5922 5921 5922 5925 5922
5893 5891 5892 5892 5891 5889 5889 5889 5890 5889 5889 5889 5889 5888 5888 5889 5891 5891 5891 5891 5892 5892 5895 5895 5899 5901 5903 5904 5907 5910 5911 5912 5913 5914 5916 5917 5918 5917 5918 5917 5919 5921 5922
5894 5893 5892 5890 5890 5890 5890 5890 5889 5888 5888 5888 5888 5888 5887 5887 5889 5889 5889 5887 5887 5891 5888 5883 5889 5896 5900 5902 5903 5906 5908 5908 5909 5909 5911 5914 5916 5917 5917 5917 5916 5919 5921
5892 5892 5891 5890 5890 5889 5889 5888 5887 5887 5887 5887 5887 5886 5886 5887 5887 5887 5886 5885 5883 5887 5883 5875 5890 5896 5896 5898 5899 5902 5905 5905 5906 5906 5907 5910 5912 5914 5915 5914 5916 5918 5920
5889 5889 5889 5889 5887 5886 5886 5885 5886 5885 5885 5885 5885 5884 5884 5884 5885 5885 5884 5882 5880 5883 5885 5889 5891 5892 5892 5894 5895 5898 5902 5904 5904 5904 5905 5906 5907 5911 5912 5912 5913 5914 5917
5885 5884 5884 5883 5884 5883 5883 5881 5881 5882 5882 5882 5882 5882 5882 5881 5881 5882 5881 5879 5875 5877 5878 5880 5881 5883 5885 5889 5890 5894 5898 5899 5900 5901 5902 5903 5904 5907 5909 5909 5910 5911 5914
5879 5878 5878 5877 5877 5876 5877 5877 5874 5875 5876 5877 5878 5878 5877 5877 5877 5877 5877 5876 5875 5872 5874 5874 5875 5878 5880 5881 5885 5888 5891 5894 5895 5897 5898 5899 5901 5902 5904 5907 5907 5907 5909
5872 5872 5871 5870 5870 5869 5868 5868 5869 5867 5868 5869 5870 5870 5870 5871 5872 5871 5872 5871 5871 5871 5870 5871 5871 5872 5875 5878 5880 5882 5885 5888 5889 5892 5893 5894 5897 5898 5900 5902 5903 5905 5907
5865 5864 5862 5860 5861 5859 5859 5858 5858 5858 5858 5859 5862 5861 5862 5863 5864 5865 5865 5866 5866 5865 5866 5868 5869 5870 5872 5874 5875 5876 5877 5881 5883 5886 5888 5890 5891 5893 5895 5898 5899 5901 5903
5859 5855 5851 5849 5849 5848 5846 5845 5845 5845 5845 5846 5849 5850 5852 5854 5856 5856 5856 5858 5858 5859 5859 5861 5863 5865 5866 5867 5868 5869 5871 5873 5876 5879 5882 5884 5886 5887 5889 5892 5894 5896 5898
5847 5844 5842 5840 5837 5836 5834 5832 5830 5830 5830 5831 5833 5836 5839 5843 5844 5846 5848 5850 5851 5851 5851 5852 5854 5857 5859 5860 5861 5862 5864 5868 5871 5874 5876 5877 5879 5880 5883 5884 5887 5889 5891
5837 5833 5829 5825 5823 5821 5819 5817 5815 5813 5814 5815 5817 5819 5823 5828 5832 5837 5839 5841 5842 5844 5844 5843 5845 5848 5851 5853 5854 5856 5858 5861 5864 5866 5869 5870 5872 5873 5875 5878 5880 5881 5884
5824 5820 5816 5813 5810 5808 5806 5805 5803 5800 5798 5796 5800 5803 5808 5812 5817 5824 5827 5829 5830 5832 5835 5836 5836 5839 5842 5845 5847 5849 5851 5854 5855 5856 5859 5862 5864 5865 5866 5870 5872 5875 5876
5811 5807 5803 5801 5800 5798 5796 5794 5791 5789 5785 5782 5783 5786 5791 5794 5801 5808 5810 5816 5817 5820 5823 5825 5826 5828 5832 5835 5838 5840 5843 5846 5846 5847 5851 5853 5857 5857 5858 5860 5864 5866 5867
5800 5796 5793 5791 5790 5787 5784 5782 5779 5776 5773 5770 5770 5773 5777 5780 5784 5786 5791 5796 5798 5803 5811 5814 5817 5818 5821 5823 5827 5830 5833 5835 5836 5839 5841 5845 5848 5848 5851 5853 5854 5856 5858
5789 5785 5782 5779 5776 5774 5771 5769 5766 5763 5761 5759 5758 5759 5761 5765 5767 5771 5772 5769 5763 5729 5784 5799 5805 5808 5809 5812 5815 5819 5821 5823 5827 5829 5832 5836 5838 5840 5843 5844 5846 5846 5849
5777 5773 5770 5767 5764 5760 5756 5753 5752 5750 5747 5746 5745 5745 5747 5748 5747 5750 5752 5749 5752 5759 5732 5756 5780 5793 5797 5799 5802 5808 5812 5813 5816 5820 5821 5825 5828 5831 5833 5834 5834 5833 5836
5767 5763 5759 5755 5750 5745 5742 5740 5738 5736 5734 5733 5731 5731 5732 5735 5733 5735 5738 5740 5741 5747 5744 5754 5758 5775 5781 5790 5790 5790 5799 5804 5806 5806 5812 5815 5818 5822 5824 5825 5825 5827 5829
5758 5753 5748 5741 5736 5731 5728 5726 5723 5723 5721 5720 5720 5718 5719 5722 5724 5725 5728 5731 5731 5736 5741 5753 5759 5764 5769 5772 5778 5778 5785 5793 5796 5798 5803 5805 5809 5813 5816 5818 5819 5821 5823